#timestamp,LO_Frequency,Hit,StdDev 
1510495215.7,286046999.4,N
1510495235.5,286046999.3,N
1510495255.3,286047002.4,N
1510495275.2,286047003.6,N
1510495295.9,286047008.8,Y
1510495315.7,286047003.8,P
1510495335.6,286047004.1,N
1510495355.4,286047004.1,N
1510495375.2,286047000.9,N
1510495395.1,286047000.6,N
1510495396.0,286047000.6,N
1510495415.8,286047000.1,N
1510495435.6,286047002.1,N
1510495455.4,286046999.7,N
1510495475.3,286046998.4,N
1510495495.1,286047004.3,N
1510495515.8,286047003.9,N
1510495535.7,286047000.3,N
1510495555.5,286046996.9,N
1510495575.3,286046999.9,N
1510495595.2,286046998.2,N
1510495615.9,286046998.7,N
1510495635.7,286047000.2,N
1510495655.6,286047000.4,N
1510495675.4,286047005.7,N
1510495695.2,286047006.7,N
1510495715.1,286047004.8,N
1510495716.0,286047004.8,N
1510495735.8,286047004.8,N
1510495755.6,286047004.0,N
1510495775.4,286047001.6,N
1510495795.3,286047002.4,N
1510495815.1,286046998.1,N
1510495835.8,286046999.6,N
1510495855.7,286046998.6,N
1510495875.5,286047001.0,N
1510495895.3,286047001.0,N
1510495915.2,286046998.1,N
1510495935.9,286047000.1,N
1510495955.7,286046995.5,N
1510495975.6,286046994.3,N
1510495995.4,286046994.8,N
1510496015.2,286046990.3,Y
1510496035.1,286046993.1,P
1510496036.0,286046993.1,N
1510496055.8,286046992.8,N
1510496075.6,286046992.2,N
1510496095.5,286046994.8,N
1510496115.3,286046994.5,N
1510496135.1,286046992.8,N
1510496155.9,286046992.7,N
1510496175.7,286046990.4,Y
1510496195.5,286047000.4,P
1510496215.4,286047001.4,N
1510496235.2,286047000.2,N
1510496255.0,286047000.9,N
1510496255.9,286047000.9,N
1510496275.7,286046995.4,N
1510496295.6,286046993.3,N
1510496315.4,286046997.0,N
1510496335.2,286047000.7,N
1510496355.1,286047002.7,N
1510496356.0,286047002.7,N
1510496375.8,286047002.6,N
1510496395.6,286047003.3,N
1510496415.5,286047006.4,N
1510496435.3,286047003.0,N
1510496455.1,286047005.1,N
1510496475.9,286047004.4,N
1510496495.7,286047004.9,N
1510496515.5,286047007.6,N
1510496535.3,286047004.2,N
1510496555.2,286047002.5,N
1510496575.0,286047000.1,N
1510496575.9,286047000.1,N
1510496595.7,286047001.9,N
1510496615.6,286046998.4,N
1510496635.4,286047000.9,N
1510496655.2,286047002.4,N
1510496675.1,286047004.2,N
1510496676.0,286047004.2,N
1510496695.8,286047004.1,N
1510496715.6,286047006.0,N
1510496735.5,286047001.3,N
1510496755.3,286047004.2,N
1510496775.1,286047003.1,N
1510496795.9,286047003.4,N
1510496815.7,286047006.5,N
1510496835.5,286047008.7,N
1510496855.4,286047008.1,Y
1510496875.2,286047003.3,P
1510496895.0,286047003.4,P
1510496895.9,286047003.4,P
1510496915.8,286047003.3,Y
1510496935.6,286047001.9,P
1510496955.4,286047000.1,N
1510496975.3,286047001.2,N
1510496995.1,286047002.7,N
1510496996.0,286047002.7,N
1510497015.8,286047002.4,N
1510497035.7,286047002.2,N
1510497055.5,286046999.9,N
1510497075.3,286046998.3,N
1510497095.1,286046998.1,N
1510497115.9,286047002.2,N
1510497135.7,286047004.1,N
1510497155.5,286047002.9,N
1510497175.4,286047004.4,N
1510497195.2,286047002.7,N
1510497215.0,286046998.5,N
1510497215.9,286046998.5,N
1510497235.8,286046999.5,N
1510497255.6,286046996.8,N
1510497275.4,286046998.0,N
1510497295.3,286046999.1,N
1510497315.1,286046999.2,N
1510497316.0,286046999.2,N
1510497335.8,286046998.8,N
1510497355.7,286046999.6,N
1510497375.5,286046995.4,N
1510497395.3,286046996.1,N
1510497415.1,286046996.7,N
1510497435.9,286046997.0,N
1510497455.7,286046997.6,N
1510497475.5,286046996.6,N
1510497495.4,286046997.6,N
1510497515.2,286046995.1,N
1510497535.0,286046996.6,N
1510497535.9,286046996.6,N
1510497555.8,286046997.4,N
1510497575.6,286046997.8,N
1510497595.4,286046996.0,N
1510497615.3,286046994.6,N
1510497635.1,286046992.1,Y
1510497655.8,286046998.9,P
1510497675.7,286046997.3,P
1510497695.5,286046997.7,P
1510497715.3,286046995.2,Y
1510497735.2,286046997.5,P
1510497755.9,286046996.7,P
1510497775.7,286047000.7,N
1510497795.6,286047004.1,N
1510497815.4,286047003.3,N
1510497835.2,286047003.7,N
1510497855.1,286047002.9,N
1510497856.0,286047002.9,N
1510497875.8,286047005.1,N
1510497895.6,286047004.4,N
1510497915.4,286046998.7,N
1510497935.3,286046995.5,N
1510497955.1,286046995.2,N
1510497975.8,286046997.4,N
1510497995.7,286047000.9,N
1510498015.5,286046998.2,N
1510498035.3,286047000.0,N
1510498055.2,286047000.1,N
1510498075.9,286047001.4,N
1510498095.7,286047005.1,N
1510498115.6,286047007.1,N
1510498135.4,286047008.5,N
1510498155.2,286047006.1,N
1510498175.0,286047006.6,N
1510498176.0,286047006.6,N
1510498195.8,286047008.5,N
1510498215.6,286047005.4,N
1510498235.4,286047010.3,N
1510498255.3,286047012.4,Y
1510498275.1,286047008.2,P
1510498295.8,286047009.7,P
1510498315.7,286047011.6,P
1510498335.5,286047014.0,Y
1510498355.3,286047007.4,P
1510498375.2,286047006.2,P
1510498395.0,286047005.3,P
1510498395.9,286047005.3,Y
1510498415.8,286046998.3,P
1510498435.6,286047000.3,N
1510498455.4,286046999.4,N
1510498475.2,286047002.0,N
1510498495.1,286047003.5,N
1510498496.0,286047003.5,N
1510498515.8,286047001.9,N
1510498535.6,286047002.7,N
1510498555.5,286046998.8,N
1510498575.3,286046996.9,N
1510498595.1,286046999.5,N
1510498615.9,286046998.1,N
1510498635.7,286046997.3,N
1510498655.5,286046996.9,N
1510498675.4,286046994.3,N
1510498695.2,286046990.1,Y
1510498715.0,286046990.5,P
1510498715.9,286046990.5,N
1510498735.8,286046992.1,N
1510498755.6,286046991.8,N
1510498775.4,286046990.8,N
1510498795.2,286046992.0,N
